| time (UTC) | temp F | wind direction | speed MPH | gust MPH | rain 1hr in | rain 24hr in | rain mn in | humidity % | barometer mb |
| 20260831144214 | 68 | 0 | 0.0 | 2.0 | 0.04 | 0.04 | 0.04 | 89 | 1020.2 |
| 20260831143004 | 69 | 0 | 0.0 | 0.0 | 0.02 | 0.02 | 0.02 | 86 | 1020.1 |
| 20260831142003 | 69 | 177 | 0.0 | 2.0 | 0.01 | 0.01 | 0.01 | 85 | 1019.9 |
| 20260831141005 | 69 | 315 | 1.0 | 3.0 | 0.00 | 0.00 | 0.00 | 83 | 1019.9 |
| 20260831140003 | 69 | 157 | 1.0 | 3.0 | 0.00 | 0.00 | 0.00 | 83 | 1019.9 |
| 20260831135004 | 69 | 135 | 0.0 | 3.0 | 0.00 | 0.00 | 0.00 | 84 | 1019.8 |
| 20260831134006 | 69 | 157 | 0.0 | 2.0 | 0.00 | 0.00 | 0.00 | 85 | 1019.9 |
| 20260831133005 | 68 | 112 | 0.0 | 2.0 | 0.00 | 0.00 | 0.00 | 86 | 1020.0 |
| 20260831132005 | 68 | 113 | 0.0 | 3.0 | 0.00 | 0.00 | 0.00 | 87 | 1019.9 |
| 20260831131004 | 67 | 149 | 0.0 | 2.0 | 0.00 | 0.00 | 0.00 | 87 | 1019.8 |
| 20260831130005 | 67 | 180 | 0.0 | 2.0 | 0.00 | 0.00 | 0.00 | 87 | 1019.8 |
| 20260831125004 | 67 | 180 | 0.0 | 2.0 | 0.00 | 0.00 | 0.00 | 88 | 1020.1 |
| 20260831124004 | 66 | 165 | 0.0 | 2.0 | 0.00 | 0.00 | 0.00 | 88 | 1019.8 |
| 20260831123004 | 66 | 139 | 0.0 | 2.0 | 0.00 | 0.00 | 0.00 | 89 | 1020.1 |
| 20260831122007 | 66 | 136 | 1.0 | 2.0 | 0.00 | 0.00 | 0.00 | 90 | 1020.1 |
| 20260831121004 | 65 | 169 | 1.0 | 2.0 | 0.00 | 0.00 | 0.00 | 90 | 1020.1 |
| 20260831120006 | 65 | 149 | 1.0 | 3.0 | 0.00 | 0.00 | 0.00 | 91 | 1020.4 |
| 20260831115004 | 65 | 183 | 1.0 | 3.0 | 0.00 | 0.00 | 0.00 | 91 | 1020.4 |
| 20260831114005 | 65 | 159 | 1.0 | 3.0 | 0.00 | 0.00 | 0.00 | 91 | 1020.2 |
| 20260831113004 | 64 | 168 | 1.0 | 3.0 | 0.00 | 0.00 | 0.00 | 91 | 1020.2 |
| 20260831112213 | 64 | 165 | 0.0 | 3.0 | 0.00 | 0.00 | 0.00 | 91 | 1020.3 |
| 20260831111215 | 64 | 0 | 0.0 | 0.0 | 0.00 | 0.00 | 0.00 | 91 | 1020.2 |
| 20260831110214 | 64 | 152 | 0.0 | 3.0 | 0.00 | 0.00 | 0.00 | 91 | 1020.3 |
| 20260831105005 | 64 | 157 | 1.0 | 3.0 | 0.00 | 0.00 | 0.00 | 91 | 1019.9 |
| 20260831104005 | 63 | 157 | 1.0 | 3.0 | 0.00 | 0.00 | 0.00 | 91 | 1020.0 |
| 20260831103214 | 63 | 156 | 1.0 | 3.0 | 0.00 | 0.00 | 0.00 | 91 | 1020.0 |
| 20260831102003 | 63 | 159 | 0.0 | 2.0 | 0.00 | 0.00 | 0.00 | 91 | 1019.7 |
| 20260831101003 | 63 | 138 | 2.0 | 3.0 | 0.00 | 0.00 | 0.00 | 91 | 1019.7 |
| 20260831100004 | 63 | 147 | 2.0 | 4.0 | 0.00 | 0.00 | 0.00 | 91 | 1019.7 |
| 20260831095003 | 63 | 145 | 1.0 | 3.0 | 0.00 | 0.00 | 0.00 | 91 | 1019.7 |
| 20260831094003 | 64 | 139 | 1.0 | 3.0 | 0.00 | 0.00 | 0.00 | 91 | 1019.5 |
| 20260831093006 | 64 | 131 | 1.0 | 3.0 | 0.00 | 0.00 | 0.00 | 91 | 1019.4 |
| 20260831092003 | 64 | 145 | 1.0 | 3.0 | 0.00 | 0.00 | 0.00 | 91 | 1019.5 |
| 20260831091003 | 64 | 161 | 2.0 | 4.0 | 0.00 | 0.00 | 0.00 | 91 | 1019.7 |
| 20260831090004 | 64 | 169 | 2.0 | 4.0 | 0.00 | 0.00 | 0.00 | 91 | 1019.6 |
| 20260831085214 | 64 | 153 | 2.0 | 4.0 | 0.00 | 0.00 | 0.00 | 91 | 1019.7 |
| 20260831084003 | 64 | 167 | 2.0 | 4.0 | 0.00 | 0.00 | 0.00 | 91 | 1019.7 |
| 20260831083214 | 64 | 155 | 2.0 | 4.0 | 0.00 | 0.00 | 0.00 | 91 | 1019.8 |
| 20260831082003 | 64 | 152 | 1.0 | 2.0 | 0.00 | 0.00 | 0.00 | 92 | 1019.8 |
| 20260831081003 | 64 | 135 | 1.0 | 2.0 | 0.00 | 0.00 | 0.00 | 92 | 1019.8 |
| 20260831080003 | 63 | 161 | 1.0 | 4.0 | 0.00 | 0.00 | 0.00 | 92 | 1019.7 |
| 20260831075003 | 63 | 151 | 1.0 | 3.0 | 0.00 | 0.00 | 0.00 | 92 | 1019.8 |
| 20260831074215 | 63 | 159 | 1.0 | 3.0 | 0.00 | 0.00 | 0.00 | 92 | 1019.7 |
| 20260831073004 | 63 | 157 | 0.0 | 3.0 | 0.00 | 0.00 | 0.00 | 91 | 1019.7 |
| 20260831072003 | 63 | 170 | 0.0 | 2.0 | 0.00 | 0.00 | 0.00 | 91 | 1019.8 |
| 20260831071213 | 64 | 151 | 1.0 | 3.0 | 0.00 | 0.00 | 0.00 | 91 | 1019.7 |
| 20260831070003 | 64 | 154 | 1.0 | 2.0 | 0.00 | 0.00 | 0.00 | 90 | 1019.8 |
| 20260831065215 | 64 | 171 | 1.0 | 2.0 | 0.00 | 0.00 | 0.00 | 90 | 1019.9 |
| 20260831064003 | 65 | 151 | 1.0 | 3.0 | 0.00 | 0.00 | 0.00 | 90 | 1019.6 |
| 20260831063215 | 65 | 154 | 1.0 | 3.0 | 0.00 | 0.00 | 0.00 | 91 | 1019.8 |
| 20260831062006 | 65 | 184 | 1.0 | 2.0 | 0.00 | 0.00 | 0.00 | 91 | 1019.9 |
| 20260831061004 | 65 | 142 | 1.0 | 2.0 | 0.00 | 0.00 | 0.00 | 91 | 1019.9 |
| 20260831060004 | 65 | 159 | 1.0 | 3.0 | 0.00 | 0.00 | 0.00 | 91 | 1019.9 |
| 20260831055004 | 65 | 169 | 1.0 | 3.0 | 0.00 | 0.00 | 0.00 | 91 | 1020.0 |
| 20260831054005 | 64 | 166 | 1.0 | 4.0 | 0.00 | 0.00 | 0.00 | 92 | 1020.3 |
| 20260831053005 | 64 | 0 | 0.0 | 1.0 | 0.00 | 0.00 | 0.00 | 92 | 1020.3 |
| 20260831052005 | 64 | 149 | 1.0 | 2.0 | 0.00 | 0.00 | 0.00 | 92 | 1020.5 |
| 20260831051005 | 64 | 154 | 0.0 | 3.0 | 0.00 | 0.00 | 0.00 | 92 | 1020.5 |
| 20260831050004 | 63 | 150 | 1.0 | 2.0 | 0.00 | 0.00 | 0.00 | 91 | 1020.4 |
| 20260831045214 | 63 | 154 | 0.0 | 2.0 | 0.00 | 0.00 | 0.00 | 91 | 1020.5 |
| 20260831044004 | 64 | 139 | 1.0 | 3.0 | 0.00 | 0.00 | 0.00 | 90 | 1020.4 |
| 20260831043004 | 64 | 177 | 0.0 | 4.0 | 0.00 | 0.00 | 0.00 | 88 | 1020.3 |
| 20260831042003 | 64 | 172 | 1.0 | 4.0 | 0.00 | 0.00 | 0.00 | 88 | 1020.3 |
| 20260831041007 | 65 | 135 | 1.0 | 2.0 | 0.00 | 0.00 | 0.00 | 88 | 1020.3 |
| 20260831040008 | 65 | 161 | 1.0 | 6.0 | 0.00 | 0.00 | 0.00 | 87 | 1020.2 |
| 20260831035004 | 66 | 201 | 2.0 | 9.0 | 0.00 | 0.00 | 0.00 | 87 | 1020.5 |
| 20260831034003 | 66 | 243 | 2.0 | 7.0 | 0.00 | 0.00 | 0.00 | 87 | 1020.1 |
| 20260831033003 | 66 | 202 | 2.0 | 6.0 | 0.00 | 0.00 | 0.00 | 88 | 1020.2 |
| 20260831032005 | 66 | 231 | 2.0 | 5.0 | 0.00 | 0.00 | 0.00 | 88 | 1020.1 |
| 20260831031005 | 66 | 190 | 2.0 | 5.0 | 0.00 | 0.00 | 0.00 | 88 | 1020.1 |
| 20260831030004 | 66 | 211 | 2.0 | 7.0 | 0.00 | 0.00 | 0.00 | 88 | 1020.3 |
| 20260831025003 | 66 | 271 | 1.0 | 4.0 | 0.00 | 0.00 | 0.00 | 87 | 1020.2 |
| 20260831024003 | 66 | 217 | 2.0 | 6.0 | 0.00 | 0.00 | 0.00 | 87 | 1020.2 |
| 20260831023003 | 66 | 216 | 2.0 | 5.0 | 0.00 | 0.00 | 0.00 | 88 | 1020.2 |
| 20260831022215 | 67 | 201 | 2.0 | 7.0 | 0.00 | 0.00 | 0.00 | 89 | 1020.0 |
| 20260831021007 | 67 | 225 | 2.0 | 6.0 | 0.00 | 0.00 | 0.00 | 89 | 1020.1 |
| 20260831020004 | 67 | 236 | 1.0 | 5.0 | 0.00 | 0.00 | 0.00 | 89 | 1020.2 |
| 20260831015213 | 67 | 228 | 2.0 | 8.0 | 0.00 | 0.00 | 0.00 | 90 | 1020.1 |
| 20260831014003 | 67 | 188 | 2.0 | 7.0 | 0.00 | 0.00 | 0.00 | 90 | 1020.2 |
| 20260831013003 | 67 | 199 | 2.0 | 7.0 | 0.00 | 0.00 | 0.00 | 91 | 1020.4 |
| 20260831012003 | 67 | 247 | 2.0 | 7.0 | 0.00 | 0.00 | 0.00 | 92 | 1020.2 |
| 20260831011004 | 67 | 234 | 2.0 | 9.0 | 0.00 | 0.00 | 0.00 | 92 | 1020.2 |
| 20260831010003 | 67 | 233 | 1.0 | 4.0 | 0.00 | 0.00 | 0.00 | 92 | 1020.2 |
| 20260831005003 | 67 | 222 | 1.0 | 4.0 | 0.00 | 0.00 | 0.00 | 92 | 1020.2 |
| 20260831004006 | 67 | 237 | 1.0 | 4.0 | 0.00 | 0.00 | 0.00 | 92 | 1020.0 |
| 20260831003003 | 67 | 259 | 1.0 | 4.0 | 0.00 | 0.00 | 0.00 | 91 | 1019.8 |
| 20260831002003 | 67 | 279 | 2.0 | 6.0 | 0.00 | 0.00 | 0.00 | 91 | 1019.6 |
| 20260831001004 | 67 | 230 | 2.0 | 4.0 | 0.00 | 0.00 | 0.00 | 91 | 1019.4 |
| 20260831000003 | 67 | 269 | 1.0 | 6.0 | 0.00 | 0.00 | 0.00 | 91 | 1019.2 |
| 20260830235005 | 67 | 197 | 1.0 | 5.0 | 0.00 | 0.00 | 0.00 | 91 | 1019.2 |
| 20260830234003 | 67 | 183 | 1.0 | 4.0 | 0.00 | 0.00 | 0.00 | 91 | 1019.2 |
| 20260830233003 | 67 | 261 | 2.0 | 7.0 | 0.00 | 0.00 | 0.00 | 90 | 1019.1 |
| 20260830232005 | 67 | 257 | 3.0 | 8.0 | 0.00 | 0.00 | 0.00 | 90 | 1019.0 |
| 20260830231216 | 67 | 253 | 3.0 | 6.0 | 0.00 | 0.00 | 0.00 | 91 | 1019.1 |
| 20260830230004 | 67 | 233 | 2.0 | 9.0 | 0.00 | 0.00 | 0.00 | 91 | 1019.0 |
| 20260830225006 | 67 | 348 | 3.0 | 9.0 | 0.00 | 0.00 | 0.00 | 91 | 1019.1 |
| 20260830224004 | 67 | 256 | 2.0 | 7.0 | 0.00 | 0.00 | 0.00 | 90 | 1019.0 |
| 20260830223214 | 67 | 245 | 2.0 | 8.0 | 0.00 | 0.00 | 0.00 | 90 | 1019.1 |
| 20260830222004 | 67 | 275 | 2.0 | 5.0 | 0.00 | 0.00 | 0.00 | 90 | 1018.9 |
| 20260830221005 | 67 | 225 | 2.0 | 3.0 | 0.00 | 0.00 | 0.00 | 90 | 1019.1 |
| 20260830220004 | 67 | 244 | 1.0 | 4.0 | 0.00 | 0.00 | 0.00 | 91 | 1019.1 |
| 20260830215005 | 67 | 265 | 1.0 | 4.0 | 0.00 | 0.00 | 0.00 | 90 | 1019.2 |
| 20260830214214 | 67 | 281 | 1.0 | 5.0 | 0.00 | 0.00 | 0.00 | 90 | 1019.0 |
| 20260830213216 | 67 | 294 | 1.0 | 4.0 | 0.00 | 0.00 | 0.00 | 90 | 1019.0 |
| 20260830212005 | 67 | 232 | 2.0 | 8.0 | 0.00 | 0.00 | 0.00 | 90 | 1019.2 |
| 20260830211005 | 67 | 233 | 1.0 | 4.0 | 0.00 | 0.00 | 0.00 | 90 | 1019.2 |
| 20260830210005 | 67 | 203 | 1.0 | 5.0 | 0.00 | 0.00 | 0.00 | 90 | 1019.0 |
| 20260830205003 | 67 | 233 | 0.0 | 5.0 | 0.00 | 0.00 | 0.00 | 91 | 1019.2 |
| 20260830204003 | 67 | 234 | 1.0 | 3.0 | 0.00 | 0.00 | 0.00 | 91 | 1019.1 |
| 20260830203003 | 67 | 235 | 0.0 | 3.0 | 0.00 | 0.00 | 0.00 | 91 | 1019.1 |
| 20260830202005 | 67 | 220 | 1.0 | 4.0 | 0.00 | 0.00 | 0.00 | 90 | 1019.2 |
| 20260830201006 | 67 | 359 | 2.0 | 3.0 | 0.00 | 0.00 | 0.00 | 89 | 1019.3 |
| 20260830200005 | 67 | 282 | 0.0 | 3.0 | 0.00 | 0.00 | 0.00 | 90 | 1019.4 |
| 20260830195004 | 67 | 337 | 0.0 | 2.0 | 0.00 | 0.00 | 0.00 | 90 | 1019.3 |
| 20260830194003 | 67 | 301 | 0.0 | 3.0 | 0.00 | 0.00 | 0.00 | 90 | 1019.3 |
| 20260830193213 | 67 | 360 | 0.0 | 3.0 | 0.00 | 0.00 | 0.00 | 90 | 1019.4 |
| 20260830192005 | 67 | 279 | 1.0 | 3.0 | 0.00 | 0.00 | 0.00 | 89 | 1019.5 |
| 20260830191004 | 67 | 284 | 1.0 | 4.0 | 0.00 | 0.00 | 0.00 | 87 | 1019.8 |
| 20260830190003 | 68 | 281 | 2.0 | 8.0 | 0.00 | 0.00 | 0.00 | 86 | 1019.9 |
| 20260830185003 | 68 | 319 | 2.0 | 6.0 | 0.00 | 0.00 | 0.00 | 83 | 1020.1 |
| 20260830184214 | 69 | 332 | 2.0 | 7.0 | 0.00 | 0.00 | 0.00 | 81 | 1020.1 |
| 20260830183004 | 69 | 305 | 2.0 | 7.0 | 0.00 | 0.00 | 0.00 | 77 | 1020.0 |
| 20260830182003 | 70 | 308 | 2.0 | 7.0 | 0.00 | 0.00 | 0.00 | 75 | 1020.1 |
| 20260830181004 | 70 | 27 | 3.0 | 10.0 | 0.00 | 0.00 | 0.00 | 73 | 1020.0 |
| 20260830180003 | 71 | 258 | 3.0 | 10.0 | 0.00 | 0.00 | 0.00 | 69 | 1019.9 |
| 20260830175003 | 72 | 271 | 2.0 | 7.0 | 0.00 | 0.00 | 0.00 | 64 | 1019.7 |
| 20260830174003 | 72 | 309 | 2.0 | 7.0 | 0.00 | 0.00 | 0.00 | 63 | 1019.6 |
| 20260830173003 | 73 | 352 | 2.0 | 8.0 | 0.00 | 0.00 | 0.00 | 62 | 1019.6 |
| 20260830172004 | 73 | 281 | 2.0 | 8.0 | 0.00 | 0.00 | 0.00 | 63 | 1019.7 |
| 20260830171004 | 73 | 267 | 2.0 | 6.0 | 0.00 | 0.00 | 0.00 | 62 | 1019.6 |
| 20260830170004 | 73 | 255 | 2.0 | 9.0 | 0.00 | 0.00 | 0.00 | 61 | 1019.5 |
| 20260830165007 | 74 | 288 | 2.0 | 9.0 | 0.00 | 0.00 | 0.00 | 60 | 1019.5 |
| 20260830164003 | 74 | 260 | 3.0 | 9.0 | 0.00 | 0.00 | 0.00 | 59 | 1019.5 |
| 20260830163003 | 74 | 223 | 2.0 | 7.0 | 0.00 | 0.00 | 0.00 | 61 | 1019.7 |
| 20260830162004 | 74 | 262 | 2.0 | 9.0 | 0.00 | 0.00 | 0.00 | 60 | 1019.6 |
| 20260830161004 | 73 | 317 | 2.0 | 6.0 | 0.00 | 0.00 | 0.00 | 61 | 1019.7 |
| 20260830160004 | 73 | 236 | 3.0 | 8.0 | 0.00 | 0.00 | 0.00 | 60 | 1019.7 |
| 20260830155215 | 73 | 246 | 3.0 | 9.0 | 0.00 | 0.00 | 0.00 | 60 | 1019.7 |
| 20260830154004 | 73 | 204 | 2.0 | 6.0 | 0.00 | 0.00 | 0.00 | 60 | 1019.7 |
| 20260830153006 | 73 | 183 | 2.0 | 7.0 | 0.00 | 0.00 | 0.00 | 59 | 1019.7 |
| 20260830152004 | 73 | 221 | 3.0 | 7.0 | 0.00 | 0.00 | 0.00 | 60 | 1019.8 |
| 20260830151215 | 73 | 210 | 2.0 | 7.0 | 0.00 | 0.00 | 0.00 | 60 | 1020.0 |
| 20260830150004 | 73 | 209 | 2.0 | 6.0 | 0.00 | 0.00 | 0.00 | 60 | 1019.8 |